Location: Monrovia
(34.7865°N, 86.7139°W)
Time: 21:36:27
(UTC+00:00)

ATLAS 3B R/B - Pass Details

Date: 14 July 2020
Orbit: 1021 x 1174 km, 63.8° (Epoch: 05 August)

Event Time Altitude Azimuth Distance (km) Brightness Sun altitude
Exits shadow 09:14:10 - 173° (S) 3,653 5.2 -16.1°
Reaches altitude 10° 09:16:53 10° 161° (SSE) 2,818 4.7 -15.7°
Maximum altitude 09:22:03 25° 109° (ESE) 1,943 4.4 -14.9°
Drops below altitude 10° 09:27:12 10° 57° (ENE) 2,810 6.3 -14.1°
Sets 09:30:16 0° 45° (NE) 3,770 7.5 -13.6°
